• In Uzbekistan
  • List of Countries
  • For 7 days
  • Water Temperature
  • Satellite Maps
  • Weather Map
  • Weather Widgets
  • user-avatar
    Login

    Hourly Weather Kipungo

    Today, 1 March, Wednesday

    Time Temperature Precipitation Wind Pressure Humidity
    00:00 +19°C° 0.1 mm 1 mps 652 mmHg 97%
    01:00 +19°C° 0 mm 1 mps 652 mmHg 97%
    02:00 +19°C° 0.5 mm 1 mps 652 mmHg 97%
    03:00 +19°C° 0.5 mm 1 mps 652 mmHg 97%
    04:00 +19°C° 0.5 mm 1 mps 652 mmHg 97%
    05:00 +19°C° 0.5 mm 1 mps 652 mmHg 97%
    06:00 +19°C° 0.5 mm 1 mps 652 mmHg 96%
    07:00 +20°C° 0 mm 1 mps 652 mmHg 95%
    08:00 +21°C° 0.5 mm 1 mps 653 mmHg 91%
    09:00 +22°C° 0.5 mm 1 mps 653 mmHg 86%
    10:00 +23°C° 0.5 mm 1 mps 653 mmHg 82%
    11:00 +24°C° 0.2 mm 2 mps 653 mmHg 75%
    12:00 +25°C° 0.2 mm 2 mps 653 mmHg 69%
    13:00 +25°C° 0 mm 2 mps 653 mmHg 69%
    14:00 +25°C° 0.2 mm 2 mps 652 mmHg 69%
    15:00 +25°C° 0.2 mm 2 mps 652 mmHg 70%
    16:00 +25°C° 0.2 mm 2 mps 651 mmHg 70%
    17:00 +24°C° 0.1 mm 2 mps 651 mmHg 77%
    18:00 +22°C° 0.1 mm 1 mps 651 mmHg 83%
    19:00 +20°C° 0.1 mm 1 mps 651 mmHg 90%
    20:00 +19°C° 0 mm 1 mps 651 mmHg 91%
    21:00 +19°C° 0 mm 1 mps 651 mmHg 93%
    22:00 +18°C° 0 mm 1 mps 652 mmHg 94%
    23:00 +18°C° 0 mm 1 mps 652 mmHg 94%

    Tomorrow, 2 March, Thursday

    Time Temperature Precipitation Wind Pressure Humidity
    00:00 +18°C° 0 mm 1 mps 652 mmHg 94%
    01:00 +18°C° 0 mm 1 mps 652 mmHg 94%
    02:00 +18°C° 0 mm 1 mps 652 mmHg 94%
    03:00 +18°C° 0 mm 1 mps 651 mmHg 95%
    04:00 +16°C° 0 mm 1 mps 651 mmHg 95%
    05:00 +18°C° 0 mm 1 mps 651 mmHg 93%
    06:00 +18°C° 0 mm 1 mps 652 mmHg 91%
    07:00 +19°C° 0 mm 1 mps 652 mmHg 89%
    08:00 +21°C° 0 mm 1 mps 653 mmHg 77%
    09:00 +24°C° 0 mm 2 mps 654 mmHg 65%
    10:00 +26°C° 0 mm 2 mps 654 mmHg 53%
    11:00 +28°C° 0 mm 2 mps 654 mmHg 50%
    12:00 +29°C° 0 mm 2 mps 654 mmHg 47%
    13:00 +30°C° 0 mm 3 mps 653 mmHg 43%
    14:00 +29°C° 0 mm 3 mps 653 mmHg 44%
    15:00 +29°C° 0 mm 3 mps 652 mmHg 46%
    16:00 +29°C° 0 mm 3 mps 652 mmHg 47%
    17:00 +27°C° 0 mm 3 mps 651 mmHg 53%
    18:00 +25°C° 0 mm 2 mps 651 mmHg 59%
    19:00 +23°C° 0 mm 2 mps 651 mmHg 65%
    20:00 +21°C° 0 mm 2 mps 652 mmHg 69%
    21:00 +21°C° 0 mm 2 mps 652 mmHg 74%
    22:00 +20°C° 0 mm 2 mps 652 mmHg 78%
    23:00 +19°C° 0 mm 2 mps 652 mmHg 81%

    Day after tomorrow, 3 March, Friday

    Time Temperature Precipitation Wind Pressure Humidity
    00:00 +19°C° 0 mm 1 mps 652 mmHg 85%
    01:00 +19°C° 0 mm 1 mps 652 mmHg 89%
    02:00 +18°C° 0 mm 1 mps 651 mmHg 90%
    03:00 +18°C° 0 mm 1 mps 651 mmHg 91%
    04:00 +18°C° 0 mm 1 mps 651 mmHg 93%
    05:00 +18°C° 0 mm 1 mps 651 mmHg 90%
    06:00 +19°C° 0 mm 1 mps 651 mmHg 87%
    07:00 +19°C° 0 mm 1 mps 652 mmHg 84%
    08:00 +22°C° 0 mm 1 mps 653 mmHg 71%
    09:00 +25°C° 0 mm 1 mps 653 mmHg 58%
    10:00 +27°C° 0 mm 2 mps 654 mmHg 45%
    11:00 +28°C° 0 mm 2 mps 654 mmHg 43%
    12:00 +29°C° 0 mm 3 mps 653 mmHg 40%
    13:00 +30°C° 0 mm 3 mps 653 mmHg 38%
    14:00 +30°C° 0 mm 4 mps 652 mmHg 40%
    15:00 +29°C° 0 mm 4 mps 651 mmHg 42%
    16:00 +29°C° 0 mm 4 mps 651 mmHg 44%
    17:00 +27°C° 0 mm 3 mps 651 mmHg 50%
    18:00 +25°C° 0 mm 3 mps 650 mmHg 57%
    19:00 +23°C° 0 mm 2 mps 650 mmHg 64%
    20:00 +21°C° 0 mm 2 mps 651 mmHg 69%
    21:00 +20°C° 0 mm 2 mps 651 mmHg 75%
    22:00 +19°C° 0 mm 2 mps 651 mmHg 80%
    23:00 +19°C° 0 mm 2 mps 651 mmHg 86%

    4 March, Saturday

    Time Temperature Precipitation Wind Pressure Humidity
    00:00 +19°C° 0 mm 1 mps 651 mmHg 91%
    01:00 +18°C° 0 mm 1 mps 650 mmHg 96%
    02:00 +16°C° 0 mm 1 mps 650 mmHg 96%
    03:00 +16°C° 0 mm 1 mps 649 mmHg 97%
    04:00 +16°C° 0 mm 1 mps 649 mmHg 97%
    05:00 +16°C° 0 mm 1 mps 650 mmHg 94%
    06:00 +18°C° 0 mm 1 mps 650 mmHg 92%
    07:00 +18°C° 0 mm 1 mps 651 mmHg 89%
    08:00 +20°C° 0 mm 2 mps 651 mmHg 76%
    09:00 +24°C° 0 mm 2 mps 652 mmHg 63%
    10:00 +27°C° 0 mm 3 mps 653 mmHg 50%
    11:00 +28°C° 0 mm 3 mps 653 mmHg 46%
    12:00 +29°C° 0 mm 4 mps 652 mmHg 42%
    13:00 +30°C° 0 mm 4 mps 652 mmHg 38%
    14:00 +30°C° 0.1 mm 4 mps 651 mmHg 41%
    15:00 +29°C° 0.1 mm 4 mps 651 mmHg 44%
    16:00 +29°C° 0.1 mm 4 mps 650 mmHg 46%
    17:00 +27°C° 0.3 mm 4 mps 650 mmHg 57%
    18:00 +24°C° 0.3 mm 3 mps 650 mmHg 67%
    19:00 +21°C° 0.3 mm 2 mps 650 mmHg 78%
    20:00 +20°C° 0 mm 2 mps 650 mmHg 82%
    21:00 +19°C° 0 mm 2 mps 651 mmHg 87%
    22:00 +19°C° 0 mm 1 mps 651 mmHg 91%
    23:00 +19°C° 0 mm 1 mps 651 mmHg 93%

    5 March, Sunday

    Time Temperature Precipitation Wind Pressure Humidity
    00:00 +19°C° 0 mm 1 mps 651 mmHg 95%
    01:00 +18°C° 0 mm 1 mps 651 mmHg 97%
    02:00 +18°C° 0 mm 1 mps 650 mmHg 97%
    03:00 +16°C° 0 mm 1 mps 650 mmHg 97%
    04:00 +16°C° 0 mm 1 mps 650 mmHg 97%
    05:00 +18°C° 0 mm 1 mps 651 mmHg 96%
    06:00 +18°C° 0 mm 1 mps 651 mmHg 95%
    07:00 +18°C° 0 mm 1 mps 652 mmHg 93%
    08:00 +21°C° 0 mm 1 mps 652 mmHg 78%
    09:00 +24°C° 0 mm 1 mps 653 mmHg 63%
    10:00 +27°C° 0 mm 1 mps 654 mmHg 47%
    11:00 +29°C° 0 mm 1 mps 654 mmHg 42%
    12:00 +30°C° 0 mm 2 mps 653 mmHg 37%
    13:00 +31°C° 0 mm 2 mps 653 mmHg 32%
    14:00 +31°C° 0 mm 3 mps 652 mmHg 34%
    15:00 +31°C° 0 mm 3 mps 652 mmHg 36%
    16:00 +30°C° 0 mm 3 mps 651 mmHg 38%
    17:00 +28°C° 0.1 mm 3 mps 651 mmHg 49%
    18:00 +25°C° 0.1 mm 2 mps 651 mmHg 60%
    19:00 +23°C° 0.1 mm 2 mps 651 mmHg 71%
    20:00 +21°C° 0.1 mm 2 mps 651 mmHg 77%
    21:00 +20°C° 0.1 mm 2 mps 651 mmHg 83%
    22:00 +19°C° 0.1 mm 1 mps 652 mmHg 90%
    23:00 +19°C° 0 mm 1 mps 651 mmHg 92%

    6 March, Monday

    Time Temperature Precipitation Wind Pressure Humidity
    00:00 +18°C° 0 mm 1 mps 651 mmHg 93%
    01:00 +18°C° 0 mm 1 mps 651 mmHg 95%
    02:00 +16°C° 0 mm 1 mps 650 mmHg 96%
    03:00 +16°C° 0 mm 1 mps 650 mmHg 96%
    04:00 +14°C° 0 mm 0 mps 650 mmHg 97%
    05:00 +16°C° 0 mm 0 mps 651 mmHg 94%
    06:00 +17°C° 0 mm 0 mps 651 mmHg 92%
    07:00 +18°C° 0 mm 0 mps 652 mmHg 89%
    08:00 +21°C° 0 mm 0 mps 653 mmHg 76%
    09:00 +26°C° 0 mm 1 mps 654 mmHg 62%
    10:00 +29°C° 0 mm 1 mps 654 mmHg 49%
    11:00 +30°C° 0 mm 1 mps 654 mmHg 43%
    12:00 +32°C° 0 mm 1 mps 654 mmHg 36%
    13:00 +34°C° 0 mm 2 mps 653 mmHg 30%
    14:00 +32°C° 0 mm 2 mps 652 mmHg 30%
    15:00 +33°C° 0 mm 3 mps 652 mmHg 30%
    16:00 +33°C° 0 mm 3 mps 651 mmHg 29%
    17:00 +29°C° 0 mm 3 mps 651 mmHg 38%
    18:00 +26°C° 0 mm 2 mps 651 mmHg 46%
    19:00 +23°C° 0 mm 2 mps 651 mmHg 54%
    20:00 +21°C° 0 mm 2 mps 651 mmHg 62%
    21:00 +20°C° 0 mm 2 mps 651 mmHg 70%
    22:00 +19°C° 0 mm 2 mps 651 mmHg 79%
    23:00 +19°C° 0 mm 2 mps 651 mmHg 84%
    Show more